ROT143J LROP-LRBV

Flight info

Callsign ROT143J
Flight time N/A
Altitude 17000
Route DENAK DCT LAPKA DCT OBCAS
Aircraft A20N/M-SDE2E3FGHIRWXY/LB1

Departure

Time 2026-05-05 18:13
Airport Bucharest Henri Coandă International Airport (LROP)

Arrival

Time N/A
Airport Brașov-Ghimbav International Airport (LRBV)
Time Latitude Longitude Altitude Speed Heading
2026-05-05 17:40 44.56888 26.08832 304 ft 0 kts 174°
2026-05-05 18:01 44.56882 26.08833 304 ft 2 kts 174°
2026-05-05 18:01 44.56860 26.08844 304 ft 4 kts 141°
2026-05-05 18:01 44.56853 26.08883 305 ft 4 kts 89°
2026-05-05 18:02 44.56854 26.08909 305 ft 0 kts 84°
2026-05-05 18:02 44.56854 26.08914 305 ft 1 kts 84°
2026-05-05 18:03 44.56855 26.08925 306 ft 2 kts 83°
2026-05-05 18:03 44.56859 26.08977 307 ft 5 kts 84°
2026-05-05 18:03 44.56864 26.09041 307 ft 7 kts 84°
2026-05-05 18:03 44.56869 26.09116 307 ft 8 kts 84°
2026-05-05 18:04 44.56876 26.09202 307 ft 8 kts 84°
2026-05-05 18:04 44.56897 26.09285 307 ft 9 kts 43°
2026-05-05 18:04 44.56956 26.09310 309 ft 8 kts 19°
2026-05-05 18:04 44.56982 26.09374 310 ft 7 kts 79°
2026-05-05 18:05 44.56989 26.09455 310 ft 9 kts 83°
2026-05-05 18:05 44.56997 26.09550 310 ft 10 kts 84°
2026-05-05 18:05 44.57003 26.09657 310 ft 11 kts 85°
2026-05-05 18:05 44.57013 26.09774 310 ft 12 kts 82°
2026-05-05 18:06 44.57041 26.09891 309 ft 13 kts 34°
2026-05-05 18:06 44.57105 26.09899 309 ft 14 kts 355°
2026-05-05 18:06 44.57232 26.09879 311 ft 13 kts 353°
2026-05-05 18:06 44.57321 26.09865 313 ft 12 kts 353°
2026-05-05 18:07 44.57409 26.09851 313 ft 13 kts 353°
2026-05-05 18:07 44.57504 26.09836 313 ft 13 kts 354°
2026-05-05 18:07 44.57587 26.09872 315 ft 12 kts 51°
2026-05-05 18:07 44.57610 26.09996 315 ft 13 kts 81°
2026-05-05 18:08 44.57623 26.10130 314 ft 15 kts 82°
2026-05-05 18:08 44.57637 26.10288 312 ft 16 kts 84°
2026-05-05 18:08 44.57648 26.10451 311 ft 17 kts 85°
2026-05-05 18:08 44.57658 26.10628 310 ft 18 kts 84°
2026-05-05 18:09 44.57673 26.10813 307 ft 20 kts 83°
2026-05-05 18:09 44.57689 26.11006 307 ft 20 kts 83°
2026-05-05 18:09 44.57704 26.11200 307 ft 19 kts 84°
2026-05-05 18:09 44.57717 26.11391 307 ft 19 kts 84°
2026-05-05 18:10 44.57732 26.11578 307 ft 19 kts 84°
2026-05-05 18:10 44.57746 26.11766 307 ft 19 kts 84°
2026-05-05 18:10 44.57760 26.11951 307 ft 19 kts 84°
2026-05-05 18:10 44.57774 26.12137 306 ft 19 kts 84°
2026-05-05 18:11 44.57787 26.12331 304 ft 20 kts 85°
2026-05-05 18:11 44.57801 26.12530 303 ft 20 kts 83°
2026-05-05 18:11 44.57816 26.12710 303 ft 17 kts 84°
2026-05-05 18:11 44.57849 26.12850 303 ft 11 kts 29°
2026-05-05 18:12 44.57917 26.12822 303 ft 11 kts 323°
2026-05-05 18:12 44.57977 26.12745 303 ft 12 kts 296°
2026-05-05 18:12 44.57981 26.12622 303 ft 13 kts 265°
2026-05-05 18:12 44.57961 26.12328 306 ft 67 kts 263°
2026-05-05 18:13 44.57892 26.11306 307 ft 140 kts 264°
2026-05-05 18:13 44.57776 26.09722 626 ft 172 kts 265°
2026-05-05 18:13 44.57715 26.08051 1359 ft 177 kts 263°
2026-05-05 18:13 44.57579 26.06404 2250 ft 174 kts 261°
2026-05-05 18:14 44.57416 26.04668 2892 ft 189 kts 262°
2026-05-05 18:14 44.57248 26.02776 3498 ft 206 kts 263°
2026-05-05 18:14 44.57082 26.00740 4174 ft 219 kts 265°
2026-05-05 18:14 44.57302 25.98574 4715 ft 240 kts 297°
2026-05-05 18:15 44.58416 25.96838 5617 ft 246 kts 328°
2026-05-05 18:15 44.60017 25.96078 6437 ft 256 kts 356°
2026-05-05 18:15 44.61783 25.96648 7144 ft 273 kts 30°
2026-05-05 18:15 44.63255 25.98325 8196 ft 275 kts 38°
2026-05-05 18:16 44.64882 25.99602 9265 ft 272 kts 12°
2026-05-05 18:16 44.66731 25.99666 10305 ft 272 kts 356°
2026-05-05 18:16 44.68658 25.99470 11015 ft 282 kts
2026-05-05 18:16 44.70528 26.00425 11452 ft 300 kts 36°
2026-05-05 18:17 44.72055 26.02536 11920 ft 318 kts 47°
2026-05-05 18:17 44.73516 26.04930 12298 ft 336 kts 48°
2026-05-05 18:17 44.75109 26.07463 12678 ft 351 kts 46°
2026-05-05 18:17 44.76786 26.10010 13335 ft 357 kts 45°
2026-05-05 18:18 44.78505 26.12542 14108 ft 360 kts 45°
2026-05-05 18:18 44.80250 26.15072 14865 ft 364 kts 45°
2026-05-05 18:18 44.82024 26.17620 15504 ft 370 kts 44°
2026-05-05 18:18 44.83833 26.20201 16120 ft 374 kts 44°
2026-05-05 18:19 44.85681 26.22833 16716 ft 379 kts 44°
2026-05-05 18:19 44.87532 26.25463 16982 ft 381 kts 44°
2026-05-05 18:19 44.89388 26.28104 16999 ft 380 kts 44°
2026-05-05 18:19 44.91247 26.30750 16998 ft 381 kts 44°
2026-05-05 18:20 44.93122 26.33424 17005 ft 381 kts 44°
2026-05-05 18:20 44.94973 26.36064 17004 ft 380 kts 44°
2026-05-05 18:20 44.96826 26.38707 16998 ft 380 kts 44°
2026-05-05 18:20 44.98795 26.41203 17002 ft 380 kts 35°
2026-05-05 18:21 45.01039 26.43094 17002 ft 379 kts 25°
2026-05-05 18:21 45.03539 26.44368 17001 ft 380 kts 14°
2026-05-05 18:21 45.06111 26.45110 17000 ft 380 kts 11°
2026-05-05 18:21 45.08735 26.45764 16998 ft 381 kts 11°
2026-05-05 18:22 45.11321 26.46399 17006 ft 380 kts 11°
2026-05-05 18:22 45.13954 26.47051 16996 ft 380 kts 11°
2026-05-05 18:22 45.16544 26.47699 16999 ft 380 kts 11°
2026-05-05 18:22 45.19155 26.48358 17002 ft 380 kts 11°
2026-05-05 18:23 45.21742 26.49012 17003 ft 380 kts 11°
2026-05-05 18:23 45.24339 26.49560 16986 ft 382 kts
2026-05-05 18:23 45.26995 26.49176 16988 ft 386 kts 347°
2026-05-05 18:23 45.29483 26.47721 16995 ft 390 kts 331°
2026-05-05 18:24 45.31595 26.45317 16999 ft 396 kts 315°
2026-05-05 18:24 45.33221 26.42124 17007 ft 400 kts 304°
2026-05-05 18:24 45.34674 26.38764 17017 ft 400 kts 304°
2026-05-05 18:24 45.36108 26.35413 17014 ft 400 kts 304°
2026-05-05 18:25 45.37546 26.32060 17015 ft 400 kts 304°
2026-05-05 18:25 45.38516 26.29805 17017 ft 400 kts 304°
2026-05-05 18:25 45.40448 26.25328 17024 ft 399 kts 304°
2026-05-05 18:25 45.41936 26.21892 17024 ft 417 kts 304°
2026-05-05 18:26 45.43477 26.18340 17023 ft 435 kts 304°
2026-05-05 18:26 45.45094 26.14598 17383 ft 442 kts 304°
2026-05-05 18:26 45.46703 26.10866 17962 ft 444 kts 303°
2026-05-05 18:26 45.48300 26.07159 18535 ft 446 kts 303°
2026-05-05 18:27 45.49930 26.03367 19120 ft 447 kts 303°
2026-05-05 18:27 45.51531 25.99635 19673 ft 448 kts 303°
2026-05-05 18:27 45.53173 25.95807 20224 ft 450 kts 303°
2026-05-05 18:27 45.54789 25.92033 20770 ft 451 kts 303°
2026-05-05 18:28 45.58117 25.84260 20839 ft 476 kts 303°